"Pseudo-MPEC" for A11EXKe

Created 2026 Jul 26 1:35:02 UT using Find_Orb

Click here for an explanation of pseudo-MPECs

 
 Astrometry: 
     A11EXKe*0C2026 07 20.08030800 22 50.074-37 03 48.10   ~7NF5 19.45oVNEOCPM22
     A11EXKe 0C2026 07 20.08211100 22 49.404-37 03 35.24   ~7NF5 19.21oVNEOCPM22
     A11EXKe 0C2026 07 20.10064500 22 42.322-37 01 17.51   ~7NF5 19.48oVNEOCPM22
     A11EXKe 0C2026 07 20.11069700 22 38.525-37 00 02.38   ~7NF5 19.37oVNEOCPM22

Station data:
(M22) ATLAS South Africa, Sutherland  (S32.380156 E20.810590)  South Africa.
   Observers L. Denneau, R. Siverd, J. Tonry, H. Weiland. Measurers L.
   Denneau, N. Erasmus, A. Fitzsimmons, J. Robinson, R. Siverd, J. Tonry, H.
   Weiland. 0.5-m f/2.0 Schmidt + CCD.

Orbital elements:  A11EXKe
   Perihelion 2026 Jun 25.196035 +/- 45.3 TT =  4:42:17.4 (JD 2461216.696035)
Epoch 2026 Jul 20.0 TT = JDT 2461241.5   Earth MOID: 0.0870   Ju: 0.3303
M   3.162897660 +/- 47              Ma: 0.0584                   AutoNEOCP
n   0.127515808 +/- 0.286           Peri.  298.457005 +/- 110
a   3.909249272 +/- 5.86            Node   332.067876 +/- 39
e   0.73959779 +/- 0.259            Incl.    6.999461 +/- 23
P   7.72930                H 22.22  G  0.15   U 11.9  SR
q 1.017977147 +/- 0.242    Q 6.800521397 +/- 27.4         (J2000 ecliptic)
From 4 observations 2026 July 20 (43.8 min); mean residual 0".18
Residuals in arcseconds: 
260720 M22  .05-  .28+    260720 M22  .21-  .17-    
260720 M22  .13+  .23-    260720 M22  .14+  .13+    

Ephemerides (geocentric):
Date (UTC) HH   RA             Dec           delta  r     elong  mag " sig PA
---- --------  ------------   ------------  ------ ------ -----  --- --------
2026 07 26 02  23 55 32.084   -26 27 05.90  .14129 1.1122 130.3 19.9  63d  63
2026 07 26 03  23 55 23.078   -26 23 25.03  .14148 1.1125 130.4 19.9  63d  63
2026 07 26 04  23 55 14.096   -26 19 44.72  .14166 1.1127 130.4 19.9  63d  63
2026 07 26 05  23 55 05.138   -26 16 04.96  .14185 1.1130 130.5 19.9  63d  63
2026 07 26 06  23 54 56.203   -26 12 25.76  .14204 1.1132 130.6 19.9  63d  63
2026 07 26 07  23 54 47.292   -26 08 47.11  .14223 1.1134 130.6 19.9  63d  63
2026 07 26 08  23 54 38.404   -26 05 09.01  .14241 1.1137 130.7 19.9  64d  63
2026 07 26 09  23 54 29.539   -26 01 31.46  .14260 1.1139 130.7 19.9  64d  63
2026 07 26 10  23 54 20.697   -25 57 54.46  .14279 1.1142 130.8 19.9  64d  63
2026 07 26 11  23 54 11.878   -25 54 18.01  .14298 1.1144 130.9 19.9  64d  63
2026 07 26 12  23 54 03.082   -25 50 42.10  .14317 1.1146 130.9 19.9  64d  63
2026 07 26 13  23 53 54.308   -25 47 06.74  .14336 1.1149 131.0 19.9  64d  63
2026 07 26 14  23 53 45.557   -25 43 31.92  .14355 1.1151 131.1 19.9  64d  63
2026 07 26 15  23 53 36.828   -25 39 57.65  .14374 1.1154 131.1 19.9  64d  63
2026 07 26 16  23 53 28.121   -25 36 23.92  .14393 1.1156 131.2 19.9  64d  63
2026 07 26 17  23 53 19.437   -25 32 50.72  .14412 1.1159 131.3 19.9  64d  63
2026 07 26 18  23 53 10.774   -25 29 18.07  .14431 1.1161 131.3 19.9  65d  63
2026 07 26 19  23 53 02.134   -25 25 45.95  .14450 1.1163 131.4 19.9  65d  63
2026 07 26 20  23 52 53.515   -25 22 14.37  .14469 1.1166 131.4 19.9  65d  63
2026 07 26 21  23 52 44.918   -25 18 43.33  .14488 1.1168 131.5 19.9  65d  63
2026 07 26 22  23 52 36.342   -25 15 12.82  .14508 1.1171 131.6 19.9  65d  63
2026 07 26 23  23 52 27.788   -25 11 42.84  .14527 1.1173 131.6 19.9  65d  63
2026 07 27 00  23 52 19.255   -25 08 13.39  .14546 1.1176 131.7 19.9  65d  63
2026 07 27 01  23 52 10.744   -25 04 44.47  .14565 1.1178 131.8 19.9  65d  63
2026 07 27 02  23 52 02.253   -25 01 16.09  .14584 1.1180 131.8 19.9  66d  63
2026 07 27 03  23 51 53.783   -24 57 48.23  .14604 1.1183 131.9 19.9  66d  63
2026 07 27 04  23 51 45.335   -24 54 20.89  .14623 1.1185 131.9 19.9  66d  63
2026 07 27 05  23 51 36.906   -24 50 54.09  .14642 1.1188 132.0 19.9  66d  63
2026 07 27 06  23 51 28.499   -24 47 27.80  .14662 1.1190 132.1 19.9  66d  63
2026 07 27 07  23 51 20.112   -24 44 02.04  .14681 1.1193 132.1 19.9  66d  63
2026 07 27 08  23 51 11.746   -24 40 36.80  .14700 1.1195 132.2 19.9  66d  63
2026 07 27 09  23 51 03.399   -24 37 12.08  .14720 1.1198 132.2 19.9  66d  63
2026 07 27 10  23 50 55.073   -24 33 47.88  .14739 1.1200 132.3 20.0  66d  63
2026 07 27 11  23 50 46.767   -24 30 24.20  .14759 1.1203 132.4 20.0  66d  63
2026 07 27 12  23 50 38.481   -24 27 01.03  .14778 1.1205 132.4 20.0  66d  64
2026 07 27 13  23 50 30.215   -24 23 38.38  .14798 1.1207 132.5 20.0  66d  64
2026 07 27 14  23 50 21.969   -24 20 16.25  .14817 1.1210 132.6 20.0  67d  64
2026 07 27 15  23 50 13.742   -24 16 54.62  .14837 1.1212 132.6 20.0  67d  64
2026 07 27 16  23 50 05.535   -24 13 33.51  .14856 1.1215 132.7 20.0  67d  64
2026 07 27 17  23 49 57.347   -24 10 12.91  .14876 1.1217 132.7 20.0  67d  64
2026 07 27 18  23 49 49.178   -24 06 52.82  .14895 1.1220 132.8 20.0  67d  64
2026 07 27 19  23 49 41.029   -24 03 33.23  .14915 1.1222 132.9 20.0  67d  64
2026 07 27 20  23 49 32.899   -24 00 14.15  .14935 1.1225 132.9 20.0  67d  64
2026 07 27 21  23 49 24.788   -23 56 55.58  .14954 1.1227 133.0 20.0  67d  64
2026 07 27 22  23 49 16.696   -23 53 37.51  .14974 1.1230 133.0 20.0  67d  64
2026 07 27 23  23 49 08.623   -23 50 19.95  .14994 1.1232 133.1 20.0  67d  64
2026 07 28 00  23 49 00.568   -23 47 02.88  .15013 1.1235 133.2 20.0  67d  64
2026 07 28 01  23 48 52.533   -23 43 46.32  .15033 1.1237 133.2 20.0  67d  64